When you browse on this site, cookies collect data to enhance your experience and personalize the content and advertising you see.
Visit our Privacy Policy to learn more. By continuing to use the site, you agree to this use of cookies and data.
  • In Deutschland
  • Länderverzeichnis
  • Für 7 Tage
  • Wassertemperatur
  • Satellitenkarten
  • Wetterkarte
  • Widgets
  • user-avatar
    Anmelden

    Stündliche Wetter Tarin Kowt

    Heute, 19 Juli, Freitag

    Zeit Temperatur Niederschläge Wind Luftdruck Luftfeuchtigkeit
    00:00 +25°C° 0 mm 1 m/S 612 mmHg 10%
    01:00 +24°C° 0 mm 1 m/S 612 mmHg 10%
    02:00 +23°C° 0 mm 1 m/S 612 mmHg 11%
    03:00 +22°C° 0 mm 1 m/S 612 mmHg 11%
    04:00 +22°C° 0 mm 1 m/S 612 mmHg 12%
    05:00 +24°C° 0 mm 1 m/S 613 mmHg 11%
    06:00 +27°C° 0 mm 2 m/S 614 mmHg 10%
    07:00 +29°C° 0 mm 2 m/S 616 mmHg 9%
    08:00 +31°C° 0 mm 2 m/S 616 mmHg 8%
    09:00 +34°C° 0 mm 2 m/S 616 mmHg 8%
    10:00 +34°C° 0 mm 1 m/S 617 mmHg 9%
    11:00 +37°C° 0 mm 2 m/S 617 mmHg 8%
    12:00 +38°C° 0 mm 2 m/S 617 mmHg 6%
    13:00 +39°C° 0 mm 3 m/S 617 mmHg 5%
    14:00 +41°C° 0 mm 4 m/S 616 mmHg 5%
    15:00 +41°C° 0 mm 4 m/S 616 mmHg 5%
    16:00 +41°C° 0 mm 5 m/S 615 mmHg 4%
    17:00 +38°C° 0 mm 4 m/S 615 mmHg 5%
    18:00 +35°C° 0 mm 4 m/S 614 mmHg 6%
    19:00 +33°C° 0 mm 4 m/S 614 mmHg 7%
    20:00 +30°C° 0 mm 3 m/S 614 mmHg 7%
    21:00 +29°C° 0 mm 3 m/S 614 mmHg 8%
    22:00 +28°C° 0 mm 2 m/S 614 mmHg 8%
    23:00 +27°C° 0 mm 2 m/S 613 mmHg 9%

    Morgen, 20 Juli, Samstag

    Zeit Temperatur Niederschläge Wind Luftdruck Luftfeuchtigkeit
    00:00 +25°C° 0 mm 1 m/S 613 mmHg 10%
    01:00 +24°C° 0 mm 1 m/S 613 mmHg 11%
    02:00 +24°C° 0 mm 1 m/S 613 mmHg 15%
    03:00 +23°C° 0 mm 2 m/S 613 mmHg 19%
    04:00 +22°C° 0 mm 3 m/S 614 mmHg 23%
    05:00 +24°C° 0 mm 3 m/S 614 mmHg 27%
    06:00 +26°C° 0 mm 2 m/S 615 mmHg 30%
    07:00 +27°C° 0 mm 2 m/S 616 mmHg 34%
    08:00 +29°C° 0 mm 2 m/S 617 mmHg 29%
    09:00 +31°C° 0 mm 2 m/S 617 mmHg 24%
    10:00 +33°C° 0 mm 1 m/S 618 mmHg 19%
    11:00 +35°C° 0 mm 1 m/S 618 mmHg 16%
    12:00 +37°C° 0 mm 2 m/S 618 mmHg 13%
    13:00 +39°C° 0 mm 2 m/S 618 mmHg 10%
    14:00 +39°C° 0 mm 2 m/S 618 mmHg 9%
    15:00 +39°C° 0 mm 3 m/S 617 mmHg 8%
    16:00 +41°C° 0 mm 4 m/S 617 mmHg 7%
    17:00 +38°C° 0 mm 4 m/S 616 mmHg 8%
    18:00 +35°C° 0 mm 3 m/S 616 mmHg 10%
    19:00 +33°C° 0 mm 3 m/S 615 mmHg 11%
    20:00 +30°C° 0 mm 3 m/S 615 mmHg 12%
    21:00 +29°C° 0 mm 2 m/S 615 mmHg 13%
    22:00 +28°C° 0 mm 2 m/S 615 mmHg 14%
    23:00 +27°C° 0 mm 2 m/S 615 mmHg 15%

    übermorgen, 21 Juli, Sonntag

    Zeit Temperatur Niederschläge Wind Luftdruck Luftfeuchtigkeit
    00:00 +26°C° 0 mm 2 m/S 614 mmHg 15%
    01:00 +25°C° 0 mm 1 m/S 614 mmHg 16%
    02:00 +24°C° 0 mm 2 m/S 614 mmHg 17%
    03:00 +24°C° 0 mm 2 m/S 614 mmHg 19%
    04:00 +23°C° 0 mm 2 m/S 614 mmHg 20%
    05:00 +25°C° 0 mm 2 m/S 615 mmHg 21%
    06:00 +27°C° 0 mm 2 m/S 616 mmHg 22%
    07:00 +29°C° 0 mm 2 m/S 617 mmHg 23%
    08:00 +30°C° 0 mm 2 m/S 617 mmHg 20%
    09:00 +32°C° 0 mm 2 m/S 618 mmHg 17%
    10:00 +35°C° 0 mm 2 m/S 618 mmHg 14%
    11:00 +36°C° 0 mm 2 m/S 618 mmHg 11%
    12:00 +37°C° 0 mm 1 m/S 618 mmHg 9%
    13:00 +39°C° 0 mm 1 m/S 618 mmHg 7%
    14:00 +39°C° 0 mm 2 m/S 617 mmHg 6%
    15:00 +40°C° 0 mm 2 m/S 617 mmHg 5%
    16:00 +40°C° 0 mm 2 m/S 617 mmHg 4%
    17:00 +37°C° 0 mm 2 m/S 616 mmHg 5%
    18:00 +34°C° 0 mm 2 m/S 615 mmHg 6%
    19:00 +30°C° 0 mm 2 m/S 614 mmHg 7%
    20:00 +29°C° 0 mm 2 m/S 614 mmHg 9%
    21:00 +28°C° 0 mm 2 m/S 614 mmHg 11%
    22:00 +27°C° 0 mm 2 m/S 614 mmHg 14%
    23:00 +26°C° 0 mm 2 m/S 614 mmHg 15%

    22 Juli, Montag

    Zeit Temperatur Niederschläge Wind Luftdruck Luftfeuchtigkeit
    00:00 +25°C° 0 mm 2 m/S 614 mmHg 16%
    01:00 +25°C° 0 mm 2 m/S 614 mmHg 17%
    02:00 +24°C° 0 mm 2 m/S 614 mmHg 19%
    03:00 +23°C° 0 mm 2 m/S 614 mmHg 20%
    04:00 +23°C° 0 mm 2 m/S 614 mmHg 22%
    05:00 +25°C° 0 mm 2 m/S 615 mmHg 20%
    06:00 +27°C° 0 mm 2 m/S 615 mmHg 19%
    07:00 +29°C° 0 mm 2 m/S 616 mmHg 17%
    08:00 +31°C° 0 mm 3 m/S 617 mmHg 15%
    09:00 +34°C° 0 mm 3 m/S 617 mmHg 12%
    10:00 +36°C° 0 mm 3 m/S 617 mmHg 9%
    11:00 +37°C° 0 mm 3 m/S 617 mmHg 8%
    12:00 +38°C° 0 mm 2 m/S 617 mmHg 7%
    13:00 +39°C° 0 mm 2 m/S 617 mmHg 7%
    14:00 +40°C° 0 mm 2 m/S 616 mmHg 6%
    15:00 +40°C° 0 mm 2 m/S 616 mmHg 6%
    16:00 +40°C° 0 mm 2 m/S 615 mmHg 5%
    17:00 +37°C° 0 mm 2 m/S 614 mmHg 7%
    18:00 +34°C° 0 mm 2 m/S 613 mmHg 9%
    19:00 +30°C° 0 mm 1 m/S 612 mmHg 11%
    20:00 +29°C° 0 mm 1 m/S 612 mmHg 12%
    21:00 +28°C° 0 mm 1 m/S 612 mmHg 14%
    22:00 +27°C° 0 mm 1 m/S 612 mmHg 16%
    23:00 +26°C° 0 mm 1 m/S 612 mmHg 17%

    23 Juli, Dienstag

    Zeit Temperatur Niederschläge Wind Luftdruck Luftfeuchtigkeit
    00:00 +25°C° 0 mm 1 m/S 612 mmHg 19%
    01:00 +24°C° 0 mm 1 m/S 612 mmHg 20%
    02:00 +24°C° 0 mm 2 m/S 612 mmHg 22%
    03:00 +24°C° 0 mm 2 m/S 612 mmHg 23%
    04:00 +23°C° 0 mm 2 m/S 612 mmHg 25%
    05:00 +25°C° 0 mm 2 m/S 613 mmHg 22%
    06:00 +27°C° 0 mm 2 m/S 614 mmHg 19%
    07:00 +29°C° 0 mm 2 m/S 615 mmHg 16%
    08:00 +31°C° 0 mm 2 m/S 615 mmHg 15%
    09:00 +34°C° 0 mm 2 m/S 616 mmHg 13%
    10:00 +36°C° 0 mm 2 m/S 616 mmHg 12%
    11:00 +37°C° 0 mm 2 m/S 616 mmHg 10%
    12:00 +39°C° 0 mm 2 m/S 616 mmHg 9%
    13:00 +40°C° 0 mm 2 m/S 616 mmHg 8%
    14:00 +40°C° 0 mm 3 m/S 616 mmHg 7%
    15:00 +41°C° 0 mm 4 m/S 615 mmHg 7%
    16:00 +41°C° 0 mm 5 m/S 615 mmHg 7%
    17:00 +38°C° 0 mm 4 m/S 614 mmHg 8%
    18:00 +36°C° 0 mm 4 m/S 614 mmHg 9%
    19:00 +34°C° 0 mm 4 m/S 613 mmHg 11%
    20:00 +31°C° 0 mm 3 m/S 613 mmHg 12%
    21:00 +30°C° 0 mm 3 m/S 613 mmHg 13%
    22:00 +28°C° 0 mm 2 m/S 613 mmHg 14%
    23:00 +27°C° 0 mm 2 m/S 612 mmHg 15%

    24 Juli, Mittwoch

    Zeit Temperatur Niederschläge Wind Luftdruck Luftfeuchtigkeit
    00:00 +26°C° 0 mm 1 m/S 612 mmHg 16%
    01:00 +25°C° 0 mm 1 m/S 612 mmHg 16%
    02:00 +25°C° 0 mm 1 m/S 611 mmHg 17%
    03:00 +24°C° 0 mm 1 m/S 611 mmHg 18%
    04:00 +23°C° 0 mm 1 m/S 611 mmHg 19%
    05:00 +25°C° 0 mm 1 m/S 612 mmHg 17%
    06:00 +28°C° 0 mm 2 m/S 613 mmHg 15%
    07:00 +30°C° 0 mm 2 m/S 615 mmHg 12%
    08:00 +32°C° 0 mm 2 m/S 615 mmHg 11%
    09:00 +35°C° 0 mm 2 m/S 615 mmHg 10%
    10:00 +37°C° 0 mm 2 m/S 616 mmHg 9%
    11:00 +38°C° 0 mm 2 m/S 616 mmHg 8%
    12:00 +39°C° 0 mm 2 m/S 615 mmHg 8%
    13:00 +40°C° 0 mm 3 m/S 615 mmHg 7%
    14:00 +40°C° 0 mm 3 m/S 615 mmHg 7%
    15:00 +41°C° 0 mm 4 m/S 614 mmHg 7%
    16:00 +42°C° 0 mm 4 m/S 614 mmHg 7%
    17:00 +38°C° 0 mm 4 m/S 613 mmHg 8%
    18:00 +35°C° 0 mm 4 m/S 613 mmHg 9%
    19:00 +33°C° 0 mm 3 m/S 612 mmHg 10%
    20:00 +30°C° 0 mm 3 m/S 612 mmHg 11%
    21:00 +29°C° 0 mm 2 m/S 612 mmHg 12%
    22:00 +28°C° 0 mm 1 m/S 612 mmHg 13%
    23:00 +27°C° 0 mm 1 m/S 611 mmHg 14%
    Mehr zeigen